Bollullos de la Mitacion, Spain
Current Conditions -  °F | °C
As of 3:00 AM on Monday 22 Dec 2014 (Local Time) from LEMO Reporting Station
Clear Clear  
Wind Chill: 41°   Ceiling: Unl
Heat Index: 41°   Visibility: 6mi
Dew Point: 39°   Wind: 1mph
Humidity: 93%   Direction: 60°ENE
Pressure: 30.36"   Gusts: NA
Location:  37.34°N, 6.14°W
Report Text: LEMO 220200Z 06001KT CAVOK 05/04 Q1028 NOSIG
Loading
Personal Weather Stations






























Interactive Weather Map New forecast layout! Learn more

10-Day Weather Forecast

Advertisements
Track Severe Weather on mobile